| time (UTC) | temp F | wind direction | speed MPH | gust MPH | rain 1hr in | rain 24hr in | rain mn in | humidity % | barometer mb |
| 20260905190007 | 94 | 170 | 1.0 | 0.0 | 0.00 | 0.00 | 0.00 | 46 | 1008.7 |
| 20260905184507 | 95 | 107 | 3.0 | 0.0 | 0.00 | 0.00 | 0.00 | 45 | 1009.0 |
| 20260905183001 | 96 | 175 | 2.0 | 0.0 | 0.00 | 0.00 | 0.00 | 45 | 1009.1 |
| 20260905181600 | 95 | 63 | 3.0 | 0.0 | 0.00 | 0.00 | 0.00 | 46 | 1009.3 |
| 20260905180057 | 93 | 63 | 2.0 | 0.0 | 0.00 | 0.00 | 0.00 | 49 | 1009.7 |
| 20260905174604 | 94 | 98 | 4.0 | 0.0 | 0.00 | 0.00 | 0.00 | 48 | 1009.8 |
| 20260905173108 | 93 | 83 | 4.0 | 0.0 | 0.00 | 0.00 | 0.00 | 49 | 1010.1 |
| 20260905171554 | 92 | 28 | 2.0 | 0.0 | 0.00 | 0.00 | 0.00 | 52 | 1010.2 |
| 20260905170053 | 92 | 197 | 2.0 | 0.0 | 0.00 | 0.00 | 0.00 | 51 | 1010.3 |
| 20260905164550 | 92 | 160 | 3.0 | 0.0 | 0.00 | 0.00 | 0.00 | 53 | 1010.4 |
| 20260905163053 | 91 | 83 | 4.0 | 0.0 | 0.00 | 0.00 | 0.00 | 54 | 1010.4 |
| 20260905161548 | 91 | 202 | 3.0 | 0.0 | 0.00 | 0.00 | 0.00 | 55 | 1010.5 |
| 20260905160052 | 90 | 200 | 2.0 | 0.0 | 0.00 | 0.00 | 0.00 | 58 | 1010.3 |
| 20260905154548 | 89 | 173 | 2.0 | 0.0 | 0.00 | 0.00 | 0.00 | 60 | 1010.3 |
| 20260905153039 | 88 | 182 | 2.0 | 0.0 | 0.00 | 0.00 | 0.00 | 62 | 1010.4 |
| 20260905151538 | 88 | 198 | 4.0 | 0.0 | 0.00 | 0.00 | 0.00 | 62 | 1010.3 |
| 20260905150035 | 87 | 206 | 4.0 | 0.0 | 0.00 | 0.00 | 0.00 | 63 | 1010.2 |
| 20260905144544 | 86 | 189 | 3.0 | 0.0 | 0.00 | 0.00 | 0.00 | 65 | 1010.2 |
| 20260905143028 | 84 | 185 | 3.0 | 0.0 | 0.00 | 0.00 | 0.00 | 71 | 1010.2 |
| 20260905141548 | 82 | 184 | 2.0 | 0.0 | 0.00 | 0.00 | 0.00 | 76 | 1010.2 |
| 20260905140026 | 81 | 178 | 1.0 | 0.0 | 0.00 | 0.00 | 0.00 | 80 | 1010.2 |
| 20260905134525 | 79 | 176 | 0.0 | 0.0 | 0.00 | 0.00 | 0.00 | 82 | 1010.2 |
| 20260905133034 | 78 | 177 | 0.0 | 0.0 | 0.00 | 0.00 | 0.00 | 84 | 1010.0 |
| 20260905131537 | 78 | 177 | 2.0 | 0.0 | 0.00 | 0.00 | 0.00 | 85 | 1009.7 |
| 20260905130026 | 77 | 178 | 0.0 | 0.0 | 0.00 | 0.00 | 0.00 | 87 | 1009.7 |
| 20260905124523 | 76 | 178 | 0.0 | 0.0 | 0.00 | 0.00 | 0.00 | 86 | 1009.7 |
| 20260905123020 | 76 | 178 | 0.0 | 0.0 | 0.00 | 0.00 | 0.00 | 85 | 1009.7 |
| 20260905121520 | 77 | 178 | 0.0 | 0.0 | 0.00 | 0.00 | 0.00 | 85 | 1009.6 |
| 20260905120018 | 77 | 178 | 0.0 | 0.0 | 0.00 | 0.00 | 0.00 | 84 | 1009.4 |
| 20260905114517 | 77 | 178 | 0.0 | 0.0 | 0.00 | 0.00 | 0.00 | 84 | 1009.5 |
| 20260905113018 | 77 | 178 | 0.0 | 0.0 | 0.00 | 0.00 | 0.00 | 83 | 1009.4 |
| 20260905111517 | 77 | 178 | 2.0 | 0.0 | 0.00 | 0.00 | 0.00 | 83 | 1009.2 |
| 20260905110016 | 77 | 178 | 0.0 | 0.0 | 0.00 | 0.00 | 0.00 | 83 | 1009.3 |
| 20260905104514 | 77 | 178 | 1.0 | 0.0 | 0.00 | 0.00 | 0.00 | 83 | 1009.2 |
| 20260905103028 | 78 | 178 | 1.0 | 0.0 | 0.00 | 0.00 | 0.00 | 82 | 1009.2 |
| 20260905101515 | 78 | 178 | 1.0 | 0.0 | 0.00 | 0.00 | 0.00 | 81 | 1009.2 |
| 20260905100011 | 78 | 178 | 1.0 | 0.0 | 0.00 | 0.00 | 0.00 | 81 | 1009.2 |
| 20260905094510 | 78 | 178 | 1.0 | 0.0 | 0.00 | 0.00 | 0.00 | 80 | 1009.2 |
| 20260905093009 | 78 | 178 | 0.0 | 0.0 | 0.00 | 0.00 | 0.00 | 79 | 1009.2 |
| 20260905091508 | 79 | 178 | 0.0 | 0.0 | 0.00 | 0.00 | 0.00 | 79 | 1009.2 |
| 20260905090007 | 79 | 179 | 1.0 | 0.0 | 0.00 | 0.00 | 0.00 | 79 | 1009.0 |
| 20260905084513 | 79 | 179 | 2.0 | 0.0 | 0.00 | 0.00 | 0.00 | 78 | 1008.8 |
| 20260905083004 | 79 | 160 | 1.0 | 0.0 | 0.00 | 0.00 | 0.00 | 77 | 1008.8 |
| 20260905081503 | 79 | 160 | 1.0 | 0.0 | 0.00 | 0.00 | 0.00 | 76 | 1008.8 |
| 20260905080002 | 80 | 161 | 2.0 | 0.0 | 0.00 | 0.00 | 0.00 | 76 | 1008.8 |
| 20260905074604 | 80 | 163 | 2.0 | 0.0 | 0.00 | 0.00 | 0.00 | 75 | 1008.9 |
| 20260905073106 | 81 | 164 | 2.0 | 0.0 | 0.00 | 0.00 | 0.00 | 74 | 1009.1 |
| 20260905071557 | 81 | 171 | 2.0 | 0.0 | 0.00 | 0.00 | 0.00 | 74 | 1009.2 |
| 20260905070055 | 81 | 174 | 2.0 | 0.0 | 0.00 | 0.00 | 0.00 | 74 | 1009.2 |
| 20260905064609 | 81 | 176 | 2.0 | 0.0 | 0.00 | 0.00 | 0.00 | 73 | 1009.3 |
| 20260905063058 | 82 | 171 | 2.0 | 0.0 | 0.00 | 0.00 | 0.00 | 72 | 1009.4 |
| 20260905061613 | 82 | 169 | 2.0 | 0.0 | 0.00 | 0.00 | 0.00 | 72 | 1009.4 |
| 20260905060051 | 82 | 168 | 2.0 | 0.0 | 0.00 | 0.00 | 0.00 | 71 | 1009.3 |
| 20260905054551 | 82 | 175 | 2.0 | 0.0 | 0.00 | 0.00 | 0.00 | 71 | 1009.2 |
| 20260905053049 | 83 | 158 | 1.0 | 0.0 | 0.00 | 0.00 | 0.00 | 71 | 1009.2 |
| 20260905051605 | 83 | 157 | 2.0 | 0.0 | 0.00 | 0.00 | 0.00 | 70 | 1009.2 |
| 20260905050044 | 84 | 154 | 3.0 | 0.0 | 0.00 | 0.00 | 0.00 | 69 | 1009.2 |
| 20260905044553 | 84 | 165 | 3.0 | 0.0 | 0.00 | 0.00 | 0.00 | 68 | 1009.1 |
| 20260905043044 | 84 | 142 | 3.0 | 0.0 | 0.00 | 0.00 | 0.00 | 67 | 1009.1 |
| 20260905041542 | 84 | 150 | 3.0 | 0.0 | 0.00 | 0.00 | 0.00 | 66 | 1009.1 |
| 20260905040051 | 85 | 138 | 2.0 | 0.0 | 0.00 | 0.00 | 0.00 | 66 | 1009.2 |
| 20260905034557 | 85 | 140 | 3.0 | 0.0 | 0.00 | 0.00 | 0.00 | 65 | 1009.2 |
| 20260905033100 | 86 | 140 | 3.0 | 0.0 | 0.00 | 0.00 | 0.00 | 63 | 1009.2 |
| 20260905031541 | 86 | 141 | 3.0 | 0.0 | 0.00 | 0.00 | 0.00 | 63 | 1009.2 |
| 20260905030040 | 87 | 129 | 3.0 | 0.0 | 0.00 | 0.00 | 0.00 | 62 | 1009.2 |
| 20260905024540 | 87 | 147 | 4.0 | 0.0 | 0.00 | 0.00 | 0.00 | 61 | 1008.9 |
| 20260905023116 | 88 | 148 | 4.0 | 0.0 | 0.00 | 0.00 | 0.00 | 60 | 1008.7 |
| 20260905021539 | 88 | 134 | 3.0 | 0.0 | 0.00 | 0.00 | 0.00 | 59 | 1008.2 |
| 20260905020038 | 88 | 116 | 3.0 | 0.0 | 0.00 | 0.00 | 0.00 | 57 | 1008.2 |
| 20260905014538 | 89 | 111 | 3.0 | 0.0 | 0.00 | 0.00 | 0.00 | 53 | 1008.0 |
| 20260905013037 | 89 | 113 | 2.0 | 0.0 | 0.00 | 0.00 | 0.00 | 50 | 1007.7 |
| 20260905011541 | 90 | 117 | 1.0 | 0.0 | 0.00 | 0.00 | 0.00 | 49 | 1007.6 |
| 20260905010042 | 91 | 118 | 2.0 | 0.0 | 0.00 | 0.00 | 0.00 | 47 | 1007.5 |
| 20260905004536 | 92 | 119 | 3.0 | 0.0 | 0.00 | 0.00 | 0.00 | 46 | 1007.2 |
| 20260905003036 | 93 | 122 | 4.0 | 0.0 | 0.00 | 0.00 | 0.00 | 45 | 1007.1 |
| 20260905001536 | 94 | 113 | 4.0 | 0.0 | 0.00 | 0.00 | 0.00 | 45 | 1007.1 |
| 20260905000035 | 94 | 112 | 6.0 | 0.0 | 0.00 | 0.00 | 0.00 | 45 | 1007.0 |
| 20260904234536 | 95 | 129 | 6.0 | 0.0 | 0.00 | 0.00 | 0.00 | 44 | 1006.8 |
| 20260904233034 | 95 | 98 | 9.0 | 0.0 | 0.00 | 0.00 | 0.00 | 45 | 1006.7 |
| 20260904231534 | 96 | 107 | 9.0 | 0.0 | 0.00 | 0.00 | 0.00 | 44 | 1006.7 |
| 20260904230033 | 96 | 134 | 4.0 | 0.0 | 0.00 | 0.00 | 0.00 | 44 | 1006.7 |
| 20260904224532 | 95 | 108 | 5.0 | 0.0 | 0.00 | 0.00 | 0.00 | 46 | 1006.9 |
| 20260904223034 | 96 | 109 | 7.0 | 0.0 | 0.00 | 0.00 | 0.00 | 45 | 1007.1 |
| 20260904221530 | 97 | 121 | 4.0 | 0.0 | 0.00 | 0.00 | 0.00 | 44 | 1006.9 |
| 20260904220051 | 97 | 103 | 6.0 | 0.0 | 0.00 | 0.00 | 0.00 | 43 | 1007.1 |
| 20260904214528 | 97 | 142 | 4.0 | 0.0 | 0.00 | 0.00 | 0.00 | 41 | 1007.1 |
| 20260904213031 | 98 | 142 | 4.0 | 0.0 | 0.00 | 0.00 | 0.00 | 42 | 1007.3 |
| 20260904211527 | 98 | 105 | 5.0 | 0.0 | 0.00 | 0.00 | 0.00 | 42 | 1007.6 |
| 20260904210034 | 98 | 143 | 4.0 | 0.0 | 0.00 | 0.00 | 0.00 | 41 | 1007.7 |
| 20260904204525 | 98 | 122 | 5.0 | 0.0 | 0.00 | 0.00 | 0.00 | 41 | 1007.8 |
| 20260904203033 | 97 | 170 | 5.0 | 0.0 | 0.00 | 0.00 | 0.00 | 41 | 1008.2 |
| 20260904201523 | 98 | 131 | 5.0 | 0.0 | 0.00 | 0.00 | 0.00 | 39 | 1008.3 |
| 20260904200029 | 97 | 137 | 5.0 | 0.0 | 0.00 | 0.00 | 0.00 | 41 | 1008.5 |
| 20260904194542 | 96 | 118 | 4.0 | 0.0 | 0.00 | 0.00 | 0.00 | 43 | 1008.8 |
| 20260904193019 | 96 | 111 | 5.0 | 0.0 | 0.00 | 0.00 | 0.00 | 43 | 1009.0 |
| 20260904191526 | 97 | 131 | 3.0 | 0.0 | 0.00 | 0.00 | 0.00 | 43 | 1009.0 |